American River

Saturday, Apr 5, 2014 @ 6:00 AM

Folsom , CA

50 Miler

Place Age Gender Gender Place First Name Last Name Time City State
1 25 M 1 Joel Frost-Tift 6:26:52 Los Angeles CA
2 24 M 2 Matthew Morales 6:30:40 Visalia CA
3 46 M 3 Thomas Reiss 6:39:59 San Luis Obispo CA
4 31 M 4 Karl Schnaitter 6:43:27 Mountain View CA
5 30 M 5 Kevin Weil 6:48:30 Portola Valley CA
6 50 M 6 Jean Pommier 6:51:33 Cupertino CA
7 30 M 7 Nicolas Glatt 6:54:18 Etna CA
8 42 M 8 Dominick Layfield 6:57:14 Park City UT
9 38 M 9 Brian Miller 7:02:34 El Dorado Hills CA
10 33 M 10 Skip Crockett 7:14:28 San Francisco CA
11 46 M 11 Yasushi Saito 7:16:37 Mountain View CA
12 35 F 1 Ashley Laird 7:18:05 Sonora CA
13 46 M 12 Philip Sanderson 7:19:56 Sf CA
14 39 M 13 Jamie Dreher 7:23:31 West Sacramento CA
15 45 M 14 Carl Johnson 7:24:57 Auburn CA
16 33 F 2 Ana Guijarro 7:26:56 Fontana CA
17 19 M 15 Cody Logan 7:29:31 Bakersfield CA
18 45 M 16 Michael Fink 7:32:22 Lincoln CA
19 46 M 17 William Robinson 7:36:52 Fort Jones CA
20 47 M 18 Ray Sanchez 7:37:30 Sacramento CA
21 22 M 19 Lucas Baxter 7:38:09 Davis CA
22 33 M 20 Ryan Smith 7:39:49 Fair Oaks CA
23 35 M 21 Steve Rodriguez 7:44:37 Lafayette CA
24 44 M 22 Ethan Veneklasen 7:45:04 Danville CA
25 38 M 23 Matt Zuchetto 7:45:43 Spokane WA
26 26 F 3 Lauren Tomory 7:46:37 Reno NV
27 45 M 24 Michael Savelli 7:46:52 Wilton CA
28 28 M 25 James Gerson 7:50:44 Palo Alto CA
29 36 M 26 Jerry Garcia 7:51:03 Temple City CA
30 35 M 27 Ryan Peel 7:51:49 Reno NV
31 40 M 28 Jady Palko 7:52:59 Windsor CA
32 35 M 29 Donnie Blameuser 7:53:20 San Jose CA
33 33 M 30 Robert Peterson 7:53:45 Folsom CA
34 35 F 4 Tracy Bowling 7:54:20 Fresno CA
35 37 M 31 Lennard Hachmann 7:55:11 Menlo Park CA
36 42 M 32 Klas Eklof 7:56:02 Oakland CA
37 44 F 5 Laura Richard 7:57:32 Berkeley CA
38 32 M 33 Brandon Chalk 7:59:25 San Francisco CA
39 40 M 34 Dean Morris 8:00:18 Klamath Falls OR
40 35 M 35 Rich Conder 8:00:41 Suisun City CA
41 54 M 36 Greg Nacco 8:00:48 Larkspur CA
42 45 M 37 Dion Doshier 8:02:02 Fresno CA
43 31 M 38 Henry Zoch III 8:06:42 Plano TX
44 40 F 6 Molly Knox 8:08:43 Roseville CA
45 25 M 39 Jeff Ball 8:08:49 Dallas TX
46 44 M 40 Benjamin Ewers 8:09:49 Menlo Park CA
47 49 F 7 Debbie Gibson 8:11:49 Helena MT
48 42 F 8 Kristin Bremer 8:12:29 Towson MD
49 33 M 41 Michael Burke 8:13:07 Boise ID
50 45 M 42 Daigo Echizenya 8:13:24 Dublin CA
51 45 M 43 Guy Herr 8:13:28 San Jose CA
52 49 M 44 Eric Wilson 8:15:08 Oakland CA
53 35 M 45 Eric Giovanola 8:16:37 Menlo Park CA
54 52 M 46 Sean Richardson 8:17:05 Palos Verdes Estate CA
55 36 F 9 Larissa Rivers 8:19:18 Mill Valley CA
56 38 F 10 Mary Churchill 8:19:32 Novato CA
57 44 M 47 Colin Alley 8:19:44 Mill Valley CA
58 43 M 48 Chris Randall 8:23:14 Berkeley CA
59 51 M 49 Jeff Boutte 8:23:35 Grass Valley CA
60 42 M 50 Mark Dorman 8:23:46 Clovis CA
61 40 M 51 Patrick McMahon 8:23:47 San Ramon CA
62 34 M 52 Jeremy Crossley 8:24:06 El Cajon CA
63 26 M 53 Scott Perkins 8:24:17 Hermosa Beach CA
64 44 M 54 Greg Bricca 8:24:20 El Dorado Hills CA
65 33 M 55 Paul McDonald 8:26:58 Belmont CA
66 40 M 56 Richard Bach 8:27:27 Elk Grove CA
67 44 M 57 Tony Overbay 8:27:58 Lincoln CA
68 30 M 58 Paul Baines 8:28:06 El Cerrito CA
69 29 F 11 Allison Henderson 8:29:03 Sacramento CA
70 45 M 59 Roger Leasure 8:29:55 Placerville CA
71 35 M 60 Jason Reed 8:30:00 San Bruno CA
72 52 M 61 Tom Riley 8:30:44 Orinda CA
73 35 M 62 Jeff Williams 8:32:09 Campbell CA
74 42 M 63 Anthony Brantley 8:33:05 Orangevale CA
75 43 M 64 Brent Konvalin 8:33:07 Orangevale CA
76 41 F 12 Caroline Barichievich 8:33:11 South Lake Tahoe CA
77 43 M 65 James Hutson 8:33:32 Lafayette CA
78 48 M 66 Jesus Reynoso 8:34:10 Elk Grove CA
79 58 M 67 Armando Figueroa 8:34:53 Visalia CA
80 46 M 68 David Binder 8:35:00 Oakland CA
81 29 F 13 Dana Kracaw 8:35:00 Leadville CO
82 28 F 14 Charlotte Winthrop 8:35:21 San Francisco CA
83 40 M 69 Michael Shoup 8:35:40 Menlo Park CA
84 32 M 70 Joe Blanchard 8:36:28 Klamath Falls OR
85 34 M 71 Carson Teasley 8:36:37 Foresthill CA
86 49 M 72 Stephen Peterson 8:36:58 Anchorage AK
87 47 M 73 David Larson 8:37:12 Fresno CA
88 29 M 74 Ryan Montalvo 8:37:21 Sacramento CA
89 39 M 75 Brian Forbes 8:38:40 Sonora CA
90 47 F 15 Brenda Blinn 8:39:12 Napa CA
91 48 M 76 Kevin Thayer 8:39:13 Salinas CA
92 47 M 77 Donal Carroll 8:39:34 San Francisco CA
93 56 M 78 Marc Klemencic 8:41:18 San Jose CA
94 31 M 79 Jonathan Bretan 8:42:37 San Rafael CA
95 46 M 80 Gary Wang 8:43:08 Corte Madera CA
96 47 M 81 Scott Smith 8:43:36 Auburn CA
97 47 M 82 Ismael Macias 8:44:03 Sacramento CA
98 42 M 83 Todd Elayer 8:45:09 Folsom CA
99 51 M 84 Mitch Garrett 8:45:23 Folsom CA
100 49 M 85 Nick Capraro 8:47:03 Elk Grove CA
101 50 M 86 John Vandermeer 8:47:43 Sparks NV
102 53 M 87 Ueli Stadler 8:48:51 Portland OR
103 45 M 88 Derek Beenfeldt 8:49:17 Reno NV
104 34 M 89 Daniel Arnold 8:49:53 Sonora CA
105 40 M 90 Dave Foster 8:50:26 Garden Valley CA
106 40 M 91 Mario Diego 8:50:32 Novato CA
107 42 M 92 Matt Leffert 8:50:51 San Francisco CA
108 38 M 93 Matt Sterlin 8:50:52 Bolinas CA
109 49 F 16 Elizabeth Drake 8:50:58 Reno NV
110 34 M 94 Zachary Smith 8:51:00 Sparks NV
111 47 M 95 Will Kelty 8:51:28 San Rafael CA
112 30 M 96 Omar Moreno 8:53:00 Davis CA
113 37 M 97 Drew Bartlett 8:53:45 Lincoln CA
114 21 M 98 John Young 8:54:52 Portland OR
115 45 M 99 Todd Yerkes 8:54:57 Rocklin CA
116 35 F 17 Jen Maravillas 8:55:06 San Mateo CA
117 25 F 18 Hanna Nilsson 8:55:19 University Park MD
118 57 M 100 Mike Miller 8:55:22 Sonora CA
119 46 M 101 Paul Lind 8:56:23 Challis ID
120 41 M 102 Mike Richey 8:56:27 Bakersfield CA
121 48 F 19 Laura Siniscalchi 8:57:41 San Diego CA
122 57 M 103 James Yanoschik 8:57:50 Murrieta CA
123 33 M 104 Nick Affleck 8:58:34 Chico CA
124 42 M 105 Ronnie Nauert 8:58:38 Auburn CA
125 49 M 106 Jeffery Johnston 8:58:39 Lincoln CA
126 55 M 107 James Kern 8:59:33 Sunnyvale CA
127 27 M 108 Nicholas Banaszak 9:02:39 El Dorado Hills CA
128 26 M 109 Nathan Venard 9:04:17 Brooklyn NY
129 29 F 20 Natalie Badowski 9:04:23 Mountain View CA
130 38 M 110 Christopher Errecart 9:06:06 Long Beach CA
131 49 M 111 Andy Belk 9:06:50 Portola Valley CA
132 36 F 21 Kristen Dymmel 9:07:01 Palo Alto CA
133 35 M 112 Joey Montoya 9:07:15 Auburn CA
134 41 M 113 Stuart Brodlieb 9:07:26 Los Angeles CA
135 36 F 22 Jessica Linney 9:07:43 Collierville TN
136 40 M 114 Elijah Hall 9:07:47 Sacramento CA
137 52 F 23 Denise Fleming-Williams 9:08:26 Folsom CA
138 34 M 115 James Mabry 9:08:50 Grass Valley CA
139 43 F 24 Jill Cole 9:09:52 Los Gatos CA
140 38 M 116 Rich Deborba 9:10:09 Sunnyvale CA
141 51 M 117 Michael Parker 9:10:27 Bodega Bay CA
142 43 F 25 Andrea Keife 9:10:37 Reno NV
143 31 M 118 Shawn Iqbal 9:10:54 Goleta CA
144 31 F 26 Valerie Folden 9:11:16 Sparks NV
145 29 F 27 Johanna Blanchard 9:12:10 Klamath Falls OR
146 44 F 28 Veronica Fujisawa 9:14:14 Pleasant Hill CA
147 37 M 119 David Aguayo 9:14:42 Mountain House CA
148 39 M 120 Kendall Wu 9:16:03 Mountain View CA
149 44 F 29 Kristin Gustafsson 9:16:14 Folsom CA
150 33 M 121 Francisco Arnaiz 9:16:18 Elk Grove CA
151 55 F 30 Angie Pozzi 9:16:33 Granite Bay CA
152 60 M 122 Eric Paavola 9:16:58 Lakeside CA
153 50 M 123 Johan Wikman 9:17:38 San Rafael CA
154 49 M 124 David Herrlin 9:18:26 Auburn CA
155 31 M 125 Joseph Heilman 9:19:53 Beaverton OR
156 47 M 126 Juan Parra 9:19:55 Fairfield CA
157 38 M 127 Justin Waller 9:20:16 Chico CA
158 53 M 128 Mike Grimm 9:20:20 Los Altos Hills CA
159 35 M 129 Eric Spencer 9:20:25 Foresthill CA
160 42 M 130 Chris Jones 9:20:51 San Francisco CA
161 45 M 131 Joby Chock 9:20:51 Roseville CA
162 43 M 132 Adrian Torres 9:20:53 Davis CA
163 36 M 133 Jon Burg 9:21:10 San Francisco CA
164 21 F 31 Katie Trent 9:21:36 Reno NV
165 47 M 134 George Rehmet 9:21:40 Daly City CA
166 44 M 135 Scott Vosburg 9:21:49 Roseville CA
167 36 M 136 Brian Kiio 9:21:50 Mountain View CA
168 55 M 137 Chuck Amital 9:22:01 San Francisco CA
169 27 M 138 Maxime Petazzoni 9:22:21 Sunnyvale CA
170 46 M 139 Jon Luff 9:23:07 New York NY
171 50 M 140 Kenneth Osborne 9:23:09 Dublin CA
172 34 M 141 Jeffrey Wright 9:23:49 Vacaville CA
173 51 M 142 Charles Blakeney 9:24:31 Oakland CA
174 0 F 32 Betty Ronces 9:24:31
175 33 M 143 Alberto Trujillo 9:25:16 Salinas CA
176 44 M 144 Jason Dumars 9:25:17 Fair Oaks CA
177 45 F 33 Jenny Weisberg 9:25:26 Reno NV
178 49 M 145 Doug Obester 9:25:33 Redwood City CA
179 42 M 146 Brian Dufour 9:25:55 Penngrove CA
180 61 M 147 Douglas Croall 9:26:14 Newcastle CA
181 49 M 148 Bobby Hernandez 9:26:15 Pleasanton CA
182 49 F 34 Florencia Gascon-Amyx 9:27:14 Mill Valley CA
183 49 M 149 John Murphy 9:27:52 Lincoln CA
184 41 F 35 Keather Kehoe 9:27:52 Elk Grove CA
185 46 M 150 Alan Barichievich 9:27:53 South Lake Tahoe CA
186 44 M 151 Rob Monroe 9:28:03 San Carlos CA
187 29 F 36 Vivian Valdivia 9:28:20 Los Angeles CA
188 45 M 152 Dan Foehner 9:28:26 Pleasanton CA
189 30 F 37 Megan Lacey 9:30:16 Vancouver WA
190 28 F 38 Laura Matz 9:30:18 Sacramento CA
191 50 M 153 Darryl Haber 9:30:20 Brentwood CA
192 41 M 154 Loren Lewis 9:30:24 San Jose CA
193 37 M 155 Gavin Austin 9:30:35 San Francisco CA
194 33 M 156 Joshua Canning 9:30:42 Phoenix AZ
195 26 M 157 Liu Liu 9:31:11 Mountain View CA
196 42 F 39 Claudia Graetsch-Vasquez 9:31:34 Benicia CA
197 47 F 40 Lina McCain 9:32:08 Mountain View CA
198 49 M 158 John Nichols 9:32:15 El Dorado Hills CA
199 40 M 159 Jason Roche 9:32:40 Clovis CA
200 43 M 160 Robert Johnson 9:33:11 Sparks NV
201 40 F 41 Jessica Grady 9:33:59 Phoenix AZ
202 40 M 161 Chad Jensen 9:34:50 Colfax CA
203 49 M 162 Hugh Levaux 9:35:03 Oakland CA
204 30 M 163 Jeremy Wittman 9:35:19 Sacramento CA
205 25 M 164 Albert Pham 9:36:09 Cupertino CA
206 27 M 165 William Bacon 9:36:24 Oakland CA
207 43 M 166 Paul Miller 9:36:41 Cool CA
208 42 F 42 Danwei Guo 9:36:42 Foster City CA
209 29 M 167 Pete Stine 9:37:46 Morgan Hill CA
210 26 M 168 Tyler Toy 9:38:16 San Bruno CA
211 40 M 169 Steve Osborne 9:38:28 San Francisco CA
212 28 M 170 Michael Kimbrell 9:38:56 Thousand Oaks CA
213 49 M 171 Daniel Brockman 9:39:34 Rocklin CA
214 38 F 43 Sandra Campos 9:40:06 Martinez CA
215 56 F 44 Lanore Bergenske 9:40:16 Fortuna CA
216 55 M 172 Mike Savage 9:40:17 Rocklin CA
217 39 M 173 Nelson Medeiros 9:40:26 Lincoln CA
218 34 M 174 Erik Glover 9:40:55 New York NY
219 34 M 175 Bryan Weathers 9:41:45 Vallejo CA
220 39 M 176 Britton Lucky 9:41:50 Orangevale CA
221 46 F 45 Riya Young 9:42:02 Palo Alto CA
222 40 M 177 Daniel Fabun 9:42:28 Richmond CA
223 66 M 178 Larry Cawthon 9:42:59 Sacramento CA
224 44 F 46 Deirdre Greenholz 9:43:10 Carmichael CA
225 42 M 179 Jon Paguio 9:43:47 Elk Grove CA
226 43 F 47 Kathleen Deluca 9:44:09 Fresno CA
227 32 M 180 T.J. Farrell 9:44:11 Burlingame CA
228 36 M 181 William Ramirez 9:44:20 Livingston CA
229 49 M 182 Scott Engquist 9:44:29 Fair Oaks CA
230 34 M 183 Adam Gothelf 9:44:31 San Francisco CA
231 63 M 184 Todd Hayes 9:44:57 San Jose CA
232 34 M 185 Jeff Buennagel 9:45:23 Fairfax CA
233 38 M 186 John Loomis 9:45:31 Seaside CA
234 54 M 187 Mike Marshall 9:45:48 Folsom CA
235 34 F 48 Traci Vanoncini 9:46:06 Rancho Cordova CA
236 33 M 188 Michael Cordsen 9:46:16 Paso Robles CA
237 30 M 189 Anthony Holly 9:46:33 Fair Oaks CA
238 34 M 190 John Priester 9:47:23 Santa Barbara CA
239 55 M 191 Bruce Falzarano 9:47:37 Roseville CA
240 52 M 192 Brad Doyle 9:47:38 Roseville CA
241 28 F 49 Erin Stacy 9:47:49 Merced CA
242 35 M 193 Soon-Chul Choi 9:47:51 San Francisco CA
243 25 M 194 Will Nguyen 9:48:11 Berkeley CA
244 42 M 195 Charley Jones 9:49:23 Folsom CA
245 50 M 196 David Giles 9:49:51 Reno NV
246 41 M 197 Anthony Dunnigan 9:50:01 Palo Alto CA
247 37 F 50 Jodie Wood 9:50:08 Roseville CA
248 31 M 198 Matthew Vanwormer 9:50:13 Shiprock NM
249 34 F 51 Stacie Riddle 9:50:28 San Francisco CA
250 39 M 199 Eric Sass 9:50:41 Folsom CA
251 51 F 52 Laurie Beyer 9:50:44 Orangevale CA
252 24 M 200 Trevor Nederlof 9:51:45 San Francisco CA
253 36 M 201 Shavinder Singh 9:51:46 Fair Oaks CA
254 41 M 202 David Castro 9:52:16 Fresno CA
255 33 M 203 Scott Thomsen 9:52:27 Pinole CA
256 27 F 53 Tessa Chesser 9:53:05 San Anselmo CA
257 58 M 204 Lance Gilbert 9:53:06 Folsom CA
258 52 M 205 John Brooks 9:53:13 San Ramon CA
259 49 M 206 Mark Laws 9:53:20 Loomis CA
260 49 M 207 Yejun Xu 9:53:21 San Jose CA
261 113 M 208 Brian Lhee 9:53:22 Los Angeles CA
262 36 M 209 Steven Selikoff 9:53:22 Los Angeles CA
263 33 F 54 Kelley Puckett 9:53:23 Los Angeles CA
264 39 M 210 Nakia Baird 9:53:30 San Francisco CA
265 46 F 55 Karen Framnes 9:54:38 Rocklin CA
266 59 M 211 Jay Ingalls 9:54:43 Folsom CA
267 55 F 56 Noriko Bazeley 9:56:27 San Francisco CA
268 40 M 212 Tim Burr 9:57:24 Danville CA
269 39 M 213 Zachary Wandell 9:57:58 Sacramento CA
270 30 M 214 Alejandro Mares 9:58:00 San Clemente CA
271 38 M 215 Jesper Balle 9:58:57 Walnut Creek CA
272 26 F 57 Vivian Rico 9:59:19 Bakersfield CA
273 22 M 216 Charles Klinger 9:59:52 Travis Afb CA
274 43 M 217 Roger Lackey 9:59:57 Auburn CA
275 39 F 58 Asvi Phuong 10:00:36 West Sacramento CA
276 48 F 59 T.J. Ford 10:00:58 Portland OR
277 29 M 218 Santino Cabrales 10:01:24 Manteca CA
278 42 M 219 Keh-Chiang Ku 10:04:55 Cupertino CA
279 50 M 220 David Doll 10:05:24 Sacramento CA
280 50 M 221 Thomas Andersen 10:05:39 Sonora CA
281 37 M 222 Sean O’Dwyer 10:05:39 Elk Grove CA
282 55 M 223 Kevin Ryan 10:05:53 San Jose CA
283 29 M 224 Kynan Matz 10:06:51 Sacramento CA
284 37 F 60 Jenn Prewitt 10:07:14 Laguna Beach CA
285 38 M 225 Darrin Rice 10:08:49 Sparks NV
286 49 M 226 Joe Steinmetz 10:08:50 Loomis CA
287 46 M 227 Mark Nassi 10:08:53 San Francisco CA
288 44 M 228 Aaron Lehl 10:09:01 Honolulu HI
289 53 M 229 Kenneth Bossung 10:09:18 El Dorado Hills CA
290 39 M 230 Steve Inderkum 10:09:50 Sacramento CA
291 52 M 231 David Pierce 10:09:55 Mokelumne Hill CA
292 34 M 232 Tony Verdon 10:10:34 San Francisco CA
293 54 M 233 Jim Woods 10:10:39 Los Gatos CA
294 44 M 234 Brian Hamilton 10:10:40 Hillsborough CA
295 37 F 61 Stacy Adair 10:10:50 Sacramento CA
296 38 F 62 Suzanne Cardenas 10:10:50 Mather CA
297 59 M 235 Bruce Urquhart 10:10:53 San Diego CA
298 33 M 236 Martin Sengo 10:11:12 Davis CA
299 35 M 237 Ted Tsoutis 10:11:27 San Mateo CA
300 30 F 63 Kellie Currie 10:11:47 Penryn CA
301 40 F 64 Angela Kelly 10:11:54 San Ramon CA
302 36 M 238 Eric Pacenta 10:11:57 San Francisco CA
303 50 M 239 Jay Marsh 10:12:31 Cool CA
304 55 F 65 Peggy Alfred 10:12:50 Sunnyvale CA
305 43 M 240 Robert Scott 10:13:46 Diamond Springs CA
306 53 M 241 Alex Voytov 10:14:05 San Jose CA
307 33 M 242 Sean McPherson 10:14:08 San Jose CA
308 63 M 243 Yitzhak Gilon 10:14:16 Mount Aukum CA
309 49 M 244 Gary Eggleston 10:14:35 Monroe WA
310 34 F 66 Melisa Mahon 10:15:19 Citrus Heights CA
311 36 M 245 Dan Schuessler 10:15:45 San Francisco CA
312 42 M 246 James Schumacher 10:16:30 Merced CA
313 50 F 67 Susan Morgan 10:16:40 Milpitas CA
314 58 F 68 Caroilne Nelson 10:17:55 Piedmont CA
315 45 M 247 Steven Peterson 10:17:58 Lake Elsinore CA
316 39 M 248 Jake Steel 10:18:23 Roseville CA
317 64 M 249 Ty Russell 10:18:38 Pollock Pines CA
318 46 F 69 Lynette Vanschoiack 10:18:54 Challis ID
319 43 M 250 David Tarkalson 10:18:57 Twin Falls ID
320 30 F 70 Maggie Kellum 10:19:14 Sacramento CA
321 30 F 71 Melanie Michalak 10:19:48 Arcata CA
322 43 F 72 Kelly Haston 10:19:54 San Francisco CA
323 26 F 73 Deanna Niderost 10:20:05 Honolulu HI
324 46 F 74 Carina Fryer 10:20:06 Clayton CA
325 49 M 251 Brad Deluchi 10:20:16 Fair Oaks CA
326 35 M 252 Roberto Cedillo 10:20:20 Sacramento CA
327 48 M 253 Paul Oropallo 10:21:13 Rocklin CA
328 45 M 254 Carl Berndt 10:22:05 Modesto CA
329 50 F 75 Maria Ronchelli 10:22:16 Santa Rosa CA
330 50 M 255 Peter Lawson 10:22:46 Claremont CA
331 70 M 256 Ed Wehan 10:22:47 Ventura CA
332 42 F 76 Karen Tancuan 10:23:46 Concord CA
333 34 F 77 Jenni Kirk 10:23:48 San Francisco CA
334 23 M 257 Matt Provencher 10:23:56 St Louis MO
335 25 F 78 Amanda Johnson 10:24:20 Seattle WA
336 45 F 79 Tammy Perez 10:24:21 San Jose CA
337 54 M 258 Kevin Stuart 10:24:31 San Martin CA
338 45 F 80 Veronica Perez 10:24:47 Sacramento CA
339 60 M 259 Charlie Bachmann 10:25:25 Murrieta CA
340 37 M 260 John Nguyen 10:25:33 San Jose CA
341 53 M 261 Jonathan Engquist 10:26:00 Sunnyvale CA
342 49 F 81 Kelley Lafer 10:26:24 Phoenix AZ
343 58 F 82 Diane Kato 10:26:50 Auburn CA
344 38 M 262 Jeff Bradford 10:27:09 Fair Oaks CA
345 31 F 83 Hanh Larson 10:27:11 Chino Hills CA
346 35 F 84 Theo Michaels 10:27:24 Sebastopol CA
347 44 M 263 Joe Brantley 10:28:07 Santa Cruz CA
348 60 F 85 Georganna Quarles 10:28:52 Duck Key FL
349 45 M 264 Dave Stark 10:28:59 Walnut Creek CA
350 44 M 265 Luciano Alvarado Jr 10:29:14 Modesto CA
351 33 M 266 Zac Hult 10:29:44 Los Angeles CA
352 19 M 267 Austin Twietmeyer 10:29:49 Auburn CA
353 55 M 268 Tim Twietmeyer 10:29:49 Auburn CA
354 32 F 86 Shangrila Rendon 10:29:58 Pasadena CA
355 38 F 87 Jay Moore 10:30:03
356 34 F 88 Carmen Sinigiani 10:30:12 Sebastopol CA
357 40 M 269 David Crawford 10:30:14 San Ramon CA
358 43 M 270 Mauricio Alvarado 10:30:31 Riverbank CA
359 42 F 89 Leah Cox 10:31:08 Citrus Heights CA
360 43 M 271 Glenn Schiavo 10:31:46 Cupertino CA
361 38 F 90 Maria Carolina Gonzalez-Prats 10:32:01 Portland OR
362 51 M 272 Stephen Elliott 10:32:09 Sacramento CA
363 44 M 273 Daniel Fischer 10:33:02 Sacramento CA
364 37 F 91 Pamela Kropf 10:33:07 El Dorado Hills CA
365 40 M 274 Lamont King 10:33:18 Elk Grove CA
366 46 M 275 Louis Shih 10:33:37 Elk Grove CA
367 26 M 276 Benjamin Clayton 10:34:30 San Francisco CA
368 54 F 92 Kathryn Beno 10:34:34 Vacaville CA
369 54 M 277 John Feeney 10:34:42 West Sacramento CA
370 42 M 278 James Smith 10:35:03 San Francisco CA
371 52 M 279 David Harper 10:35:05 Elk Grove CA
372 35 F 93 Alicia Girvin 10:35:05 Roseville CA
373 38 M 280 Kevin Douty 10:35:05 Fresno CA
374 41 F 94 Monique Lewis 10:35:14 Rocklin CA
375 27 M 281 Mark Hernandez 10:35:50 Portland OR
376 42 M 282 John Anderson 10:36:12 El Dorado Hills CA
377 67 M 283 Jim Magill 10:36:12 Saratoga CA
378 47 M 284 Theo Daniels 10:36:47 Roseville CA
379 44 M 285 Joel Carson 10:36:59 Carmichael CA
380 47 M 286 Chris Martin 10:37:09 Sacramento CA
381 51 F 95 Sharon Mosley 10:37:18 Eugene OR
382 36 M 287 Corey Gower 10:37:23 San Jose CA
383 50 M 288 Alan Shaffer 10:37:26 Pacific Grove CA
384 53 M 289 David Cox 10:37:53 Foster City CA
385 46 F 96 Kim Elliott 10:37:58 Playa Del Rey CA
386 41 M 290 David Lankford 10:38:03 Folsom CA
387 46 M 291 Alexander Borowsky 10:39:17 Davis CA
388 41 F 97 Nichole Anchell 10:39:22 Elk Grove CA
389 33 M 292 Joshua Frey 10:39:31 Folsom CA
390 34 M 293 Leif Bostrom 10:39:33 Pleasanton CA
391 60 M 294 Jeff Jones 10:39:59 Sunnyvale CA
392 49 M 295 Kevin Cubillas 10:40:23 Louisville CO
393 36 F 98 Min Wang 10:41:08 Davis CA
394 33 F 99 Erin Vestal 10:41:34 Roseville CA
395 50 F 100 Sharon Rodarte 10:41:48 San Clemente CA
396 47 M 296 Rogelio Escobedo 10:41:53 Pismo Beach CA
397 43 M 297 Jason Healey 10:41:55 Stevenson Ranch CA
398 41 F 101 Samantha Coffman 10:42:08 Glendale AZ
399 38 M 298 Peter Jakubicki 10:42:51 Folsom CA
400 39 M 299 Steve Godfrey 10:42:58 Orangevale CA
401 52 M 300 Edgar Velez 10:43:46 Sonoma CA
402 42 M 301 Mike Bohi 10:44:37 Stockton CA
403 59 M 302 Stephen Strauss 10:44:53 San Jose CA
404 70 M 303 Tim Hicks 10:45:03 Altaville CA
405 34 F 102 Andrea Brunsman 10:45:05 Davis CA
406 58 M 304 Miro Kolacek 10:45:18 San Jose CA
407 25 F 103 Carolina Hernandez 10:45:20 Orange Cove CA
408 49 M 305 Matt Perry 10:45:31 Davis CA
409 46 M 306 Steve Klang 10:46:11 Placerville CA
410 51 M 307 Craig Zellers 10:46:14 Fairfax CA
411 48 M 308 Gary Klein 10:46:21 Folsom CA
412 47 F 104 Angela Brock 10:47:31 Redding CA
413 54 M 309 Walter Robinson 10:47:56 Sunnyvale CA
414 39 M 310 Satpal Dalal 10:47:57 Cupertino CA
415 41 F 105 Heidi Vu 10:48:07 Woodland Hills CA
416 50 M 311 Steven Longo 10:48:22 Cranston RI
417 52 F 106 Sandy Baker 10:48:33 Foresthill CA
418 40 F 107 Amalia Del Rosario 10:48:35 San Jose CA
419 47 F 108 Hoang Ngo 10:48:47 San Jose CA
420 38 M 312 Chris Lotspeich 10:48:55 San Francisco CA
421 41 F 109 Tara Stoddard 10:49:22 Sacramento CA
422 57 M 313 Pip Smith 10:50:08 Folsom CA
423 52 F 110 Leslie Besseghini 10:50:56 Dixon CA
424 40 M 314 Craig Haraga 10:51:32 Scottsdale AZ
425 44 F 111 Lauren Wood 10:51:43 Santa Rosa CA
426 48 M 315 Tatsuru Tanaka 10:52:09 Campbell CA
427 49 M 316 Rafael Cortada 10:52:27 Yacolt WA
428 32 M 317 Jason Riddle 10:52:44 Reno NV
429 47 M 318 Matt Reed 10:52:53 El Cerrito CA
430 45 M 319 Mark Metcalfe 10:52:54 El Cerrito CA
431 35 M 320 Greg Harfst 10:53:17 New York NY
432 57 M 321 John Stacy 10:53:18 Fairfax VA
433 41 M 322 Cole Strickland 10:53:52 Aptos CA
434 51 F 112 Leslie Antonis 10:53:56 Aptos CA
435 30 F 113 Hilary Gibson 10:54:01 Half Moon Bay CA
436 49 M 323 Richard Haymes 10:54:38 Concord CA
437 43 F 114 Laura Zabkar 10:55:00 Auburn CA
438 36 F 115 Cara Scott 10:55:17 Diamond Springs CA
439 42 M 324 Omar Droubi 10:56:00 El Granada CA
440 46 M 325 Erik Charp 10:56:02 Albany CA
441 41 M 326 Wan Agus 10:56:14 Pleasanton CA
442 46 M 327 Steve Martelli 10:56:16 El Dorado Hills CA
443 61 M 328 Jon Easterbrook 10:56:42 Meadow Vista CA
444 43 M 329 John Meyer 10:56:52 Emeryville CA
445 45 M 330 John Salmon 10:57:57 El Dorado Hills CA
446 41 M 331 Bryan McNabb 10:58:03 Brentwood CA
447 40 F 116 Leslie Carboni 10:58:28 Sacramento CA
448 53 F 117 Lisa Barry 10:59:03 Folsom CA
449 40 F 118 Ling-Ru Chu 10:59:31 West Sacramento CA
450 52 F 119 Lisa Wright 10:59:54 Lincoln CA
451 39 M 332 Mitch Hendrickson 11:00:03 Roseville CA
452 49 M 333 Dan Nevo 11:00:05 Cupertino CA
453 33 F 120 Michaela Burgess 11:01:28 Cool CA
454 39 F 121 Kristine Barney 11:01:30 Phoenix AZ
455 51 F 122 Caroline Yasuda 11:01:43 Naperville IL
456 49 F 123 Yvette Grabis 11:02:31 Folsom CA
457 55 M 334 Michael Huss 11:02:42 Sacramento CA
458 41 F 124 Lisa Coronado 11:03:07 Fair Oaks CA
459 39 M 335 Marc Dube 11:03:17 San Ramon CA
460 52 M 336 Mark Mishler 11:03:28 Garden Valley CA
461 35 M 337 John Hutcheson 11:03:41 Folsom CA
462 42 M 338 Itao Tsai 11:04:04 San Jose CA
463 45 F 125 Denise Rowland 11:04:23 Orangevale CA
464 54 M 339 Steven Wright 11:04:26 Lodi CA
465 54 M 340 Roger Pynappel 11:05:01 Truckee CA
466 50 M 341 Geoff Quick 11:05:24 Pleasanton CA
467 44 M 342 Tate Davis 11:05:28 El Dorado Hills CA
468 33 F 126 Melanie Cadle 11:05:52 Auburn CA
469 35 F 127 Melissa Kraude 11:05:57 Roseville CA
470 33 F 128 Mary Casagrande 11:07:20 San Francisco CA
471 53 M 343 Dwight Brown 11:07:58 Los Altos CA
472 36 F 129 Amanda Ferguson 11:08:07 Orinda CA
473 48 F 130 Denise Ehler 11:08:35 Shingle Springs CA
474 36 F 131 Sarah McGinn 11:09:08 Sacramento CA
475 32 F 132 Lia Kueck 11:09:33 Stockton CA
476 46 F 133 Jacqueline Wilson 11:09:59 Glenside PA
477 49 F 134 Ann O’Hara 11:10:01 San Francisco CA
478 33 M 344 Andy Burger 11:10:46 Sacramento CA
479 54 M 345 Keith Pronske 11:11:19 Wilton CA
480 42 F 135 Julia Keevey 11:11:53 Orinda CA
481 27 F 136 Eliza Sanchez 11:12:10 Fair Oaks CA
482 31 F 137 Abbie Beane 11:12:12 Aptos CA
483 36 F 138 Katherine Moore 11:12:34 San Mateo CA
484 41 M 346 Yun Lin 11:12:35 San Jose CA
485 42 F 139 Mercedes Brooding 11:12:57 Roseville CA
486 42 M 347 John Brooding 11:12:58 Roseville CA
487 37 M 348 Stephen Gray 11:13:25 Lakewood CA
488 49 M 349 David Shade 11:13:35 Fair Oaks CA
489 43 M 350 Steve Gasser 11:13:43 Hutchinson MN
490 51 M 351 Scott Head 11:14:33 Atascadero CA
491 43 M 352 Brent Vanderhoof 11:14:33 San Luis Obispo CA
492 48 F 140 Kymberly Fazzio 11:14:33 Nipomo CA
493 44 F 141 Allison Merzon 11:14:35 Templeton CA
494 36 M 353 Zach Hill 11:15:07 Pleasant Hill CA
495 41 F 142 Debbie Booth 11:15:22 Auburn CA
496 48 M 354 Avinash Gusain 11:15:56 Folsom CA
497 24 M 355 Daniel Ly 11:16:01 Vallejo CA
498 31 M 356 Brian Mulholand 11:16:16 Concord CA
499 50 F 143 Katherine Wondolleck 11:16:24 San Ramon CA
500 58 M 357 Jeffrey Damon 11:16:40 Fair Oaks CA
501 43 M 358 Higino Gopez 11:16:47 Brentwood CA
502 51 M 359 Dennis Ow 11:16:51 Roseville CA
503 29 F 144 Patricia Passalacqua 11:17:25 Valencia CA
504 45 M 360 David Heitmann 11:17:48 Rocklin CA
505 49 F 145 Lisa Johnson 11:18:28 Citrus Heights CA
506 56 F 146 Anne Casagrande 11:19:05 Granite Bay CA
507 47 M 361 Norbert Leinfellner 11:19:05 San Ramon CA
508 46 M 362 Rick Moniot 11:19:06 Santa Barbara CA
509 44 F 147 Nicole Simone 11:19:50 Citrus Heights CA
510 37 M 363 Peter Muir 11:20:01 Lincoln CA
511 42 F 148 Sandy Mendez 11:20:09 Salida CA
512 45 F 149 Leigh Moser 11:20:54 Brentwood CA
513 37 M 364 David Thull 11:20:55 Fresno CA
514 48 F 150 Jess Soco 11:21:13 Spokane WA
515 54 F 151 Ana Braga-Levaggi 11:21:45 Mill Valley CA
516 28 M 365 Dhananjay Motwani 11:22:09 Milpitas CA
517 63 M 366 Marc Meyer 11:22:21 Auburn CA
518 48 F 152 Kim Moyano 11:22:38 Gilroy CA
519 27 F 153 Jennifer Moyano 11:22:39 Gilroy CA
520 41 M 367 Charanjit Dhaliwal 11:22:43 San Jose CA
521 36 F 154 Debbie Heard 11:22:44 San Francisco CA
522 28 M 368 Paul Broyer 11:23:07 Sacramento CA
523 52 M 369 Gary Eldridge 11:23:16 San Jose CA
524 54 M 370 Richard Watson 11:23:28 Sacramento CA
525 36 F 155 Carla Dorotheo 11:23:32 Milpitas CA
526 40 M 371 Tony Nguyen 11:24:09 San Francisco CA
527 59 M 372 Joe Borgonia 11:24:11 Pleasanton CA
528 39 M 373 Josh Grant 11:24:56 Morgan Hill CA
529 42 F 156 Winli Mcanally 11:25:15 Pacific Grove CA
530 34 F 157 Rebekah Dotson 11:26:22 Montara CA
531 51 M 374 Beli Thakur 11:26:24 Stevenson Ranch CA
532 64 M 375 William Odom 11:26:38 Folsom CA
533 41 F 158 Laurie Carruth 11:26:47 Roseville CA
534 57 M 376 Robert Fulton 11:26:54 Folsom CA
535 49 F 159 Mary Frances Valicek 11:27:18 Moraga CA
536 44 M 377 Jim Murphy 11:27:25 Rocklin CA
537 38 M 378 Brad Murphy 11:27:32 Danville CA
538 54 F 160 Cheryl Lloyd 11:27:35 Reno NV
539 64 M 379 Ron Nageotte 11:27:36 Stateline NV
540 47 F 161 Judy Turney 11:28:16 Auburn CA
541 33 F 162 Laura Langerwerf 11:28:55 Sacramento CA
542 51 F 163 Lisa Van De Water 11:29:08 Fresno CA
543 58 M 380 Brad Castillo 11:29:20 Fresno CA
544 52 M 381 Geordie Prodis 11:29:26 Littleton CO
545 40 M 382 Aaron Miller 11:29:29 Fair Oaks CA
546 29 F 164 Tehani Thompson 11:29:33 Belmont CA
547 28 F 165 Maile Thompson 11:29:33 Brisbane CA
548 60 M 383 David Lehman 11:29:35 Fresno CA
549 43 M 384 David Forshey 11:29:38 Reno NV
550 37 F 166 Gibsey Beckett 11:30:12 Morro Bay CA
551 46 F 167 Kelly Resnick 11:30:15 Morro Bay CA
552 34 M 385 Luke Winders 11:30:32 Vallejo CA
553 40 M 386 Jonathan Geller 11:30:33 San Diego CA
554 39 M 387 Blakely Hume 11:31:13 Reno NV
555 46 F 168 Anita Lee 11:31:24 Fresno CA
556 45 M 388 Scott Gray 11:31:49 Lakewood CA
557 34 M 389 Kazuo Nakashima 11:33:06 Broomfield CO
558 46 M 390 Todd Porter 11:33:22 Concord CA
559 33 M 391 Matt Carvalho 11:33:29 San Jose CA
560 30 F 169 Penelope Schenkkan 11:33:39 San Francisco CA
561 28 M 392 Tommy Ha 11:33:43 San Jose CA
562 65 M 393 Richard Grimm 11:33:59 Cool CA
563 31 F 170 Rachel Grimm 11:34:00 Cool CA
564 42 M 394 John Jatoft 11:34:15 Concord CA
565 37 M 395 Bryce Rhodes 11:34:41 Reno NV
566 39 F 171 Minel Diaz 11:35:41 Redwood City CA
567 32 F 172 Erin Donnette 11:36:27 Shingle Springs CA
568 31 M 396 Nathan Haley 11:37:06 Stockton CA
569 43 M 397 Brian Kraje 11:37:14 San Jose CA
570 45 F 173 Nicole Darby 11:37:20 Sacramento CA
571 38 F 174 Angela Rebol 11:37:28 Aptos CA
572 38 F 175 Lan Bui 11:37:30 Westminster CA
573 26 M 398 Francis Tan 11:37:42 Tucson AZ
574 54 F 176 Margaret Srinivasan 11:37:51 La Canada CA
575 51 F 177 Linda McFadden 11:39:07 Modesto CA
576 35 M 399 Philip Lee 11:39:19 Castro Valley CA
577 33 F 178 Rizza Guitarte 11:39:44 Pittsburg CA
578 56 F 179 Carolyn McCarter 11:39:51 Auburn CA
579 53 M 400 James Bayliss 11:39:53 Crowley Lake CA
580 43 F 180 Marites Antonio 11:40:18 Sacramento CA
581 32 M 401 James Kentro 11:40:35 Roseville CA
582 61 M 402 Brian Tsuyuki 11:41:01 Roseville CA
583 59 M 403 Dan Russell 11:41:17 Windsor CA
584 44 F 181 Tanya Trump 11:41:30 Mckinleyville CA
585 54 M 404 Dennis Parsons 11:41:50 Santa Rosa CA
586 39 F 182 Laura Fragulia 11:42:16 Atwater CA
587 61 M 405 Craig Lore 11:44:34 San Martin CA
588 35 F 183 Emily Yu 11:44:41 San Francisco CA
589 64 M 406 Bryan Henry 11:45:02 Angwin CA
590 39 M 407 Randy Van Dusen 11:45:09 Roseville CA
591 32 F 184 Amanda Lomas 11:45:24 Reno NV
592 46 M 408 Jody Braninburg 11:45:47 Sacramento CA
593 43 F 185 Sue Reeser 11:46:03 Mckinleyville CA
594 32 M 409 Paul Dlug 11:46:30 Port Jefferson NY
595 56 M 410 Steve Ruhnau 11:46:37 Latrobe CA
596 39 M 411 Paul Calandrella 11:46:42 Seattle WA
597 37 M 412 Chris Hunley 11:46:50 Sacramento CA
598 56 M 413 Tim Jones 11:47:12 Fairfield CA
599 39 F 186 Bernadette Dayrit 11:48:04 San Jose CA
600 47 F 187 Julia Holt 11:48:13 Corona CA
601 34 M 414 Stan Kososki 11:48:21 Rocklin CA
602 38 M 415 Will Hoang 11:48:34 San Jose CA
603 42 F 188 Alma Zechman 11:48:45 Arcata CA
604 39 F 189 Helen Bedolla 11:49:32 Reedley CA
605 50 F 190 Ramona Vogt 11:50:10 Berkeley CA
606 52 M 416 Kenneth Fong 11:51:33 San Francisco CA
607 54 M 417 Stephen Pearcy 11:51:54 Sacramento CA
608 49 F 191 Julie Hughes 11:52:24 Citrus Heights CA
609 33 F 192 Ashley Claxton 11:52:31 Roseville CA
610 37 M 418 Casey Dionne 11:52:34 Roseville CA
611 57 M 419 William Pequinot 11:53:12 Folsom CA
612 49 M 420 Ronald Moe 11:54:08 Campbell CA
613 35 F 193 Faye Stottrup 11:54:09 San Jose CA
614 38 M 421 Michael Rickels 11:54:09 Monterey CA
615 41 F 194 Michelle Rivera 11:55:32 Woodland CA
616 47 M 422 Joshua Garza 11:55:40 Bakersfield CA
617 32 M 423 Bennett Bakke 11:56:36 Redwood City CA
618 42 M 424 Marc Hopkins 11:56:53 San Jose CA
619 38 M 425 Brian Ladrillono 11:57:25 Union City CA
620 45 F 195 Katrina Manners 11:58:26 Fremont CA
621 50 M 426 Chet Davis 11:58:43 Sacramento CA
622 50 M 427 Bryan Wright 11:59:13 Newcastle CA
623 50 F 196 Chris Catunao 12:00:10 San Jose CA
624 55 M 428 Dan Marinsik 12:00:18 San Jose CA
625 44 F 197 Sarah Solomon 12:00:21 San Anselmo CA
626 53 M 429 Dan Savage 12:00:23 Fair Oaks CA
627 48 M 430 Jay Wilson 12:00:23 Elk Grove CA
628 35 F 198 Teresa Emmett 12:00:40 Santa Clara CA
629 49 F 199 Amy Rubin 12:00:49 San Jose CA
630 34 F 200 Yvonne Gallegos 12:00:52 Albany CA
631 71 M 431 Howard Ferris 12:01:35 Davis CA
632 43 F 201 Suzi Neves 12:02:00 Sacramento CA
633 44 F 202 Lydia Sanchez 12:02:22 San Jose CA
634 57 M 432 David Kuhner 12:03:05 Placentia CA
635 50 F 203 Sabrina Okada 12:03:43 Moraga CA
636 23 F 204 Holly Classon 12:04:27 Auburn CA
637 53 F 205 Coral Hammond 12:04:57 Aurora OR
638 57 M 433 Vernon Kent 12:04:58 Portland OR
639 56 F 206 Christina Flaxel 12:04:59 Portland OR
640 46 M 434 Steven Sanderson 12:05:08 Applegate CA
641 52 M 435 Michael Raynal 12:05:13 Camino CA
642 47 F 207 Nghi Chau 12:05:36 San Jose CA
643 39 M 436 Jorge Medina 12:05:45 San Francisco CA
644 57 M 437 Bill Kosch 12:06:27 Redlands CA
645 51 M 438 Bill Marweg 12:07:01 Woodbridge CA
646 36 F 208 Crystal Hopson 12:07:34 Orangevale CA
647 49 M 439 John Bressan 12:08:47 Citrus Heights CA
648 65 F 209 Donna Florio 12:09:15 Scotts Valley CA
649 50 M 440 Dave Koeck 12:10:54 Carmichael CA
650 49 M 441 John McCafferty 12:11:00 Apple Valley CA
651 38 M 442 Kevin Patja 12:11:15 Lincoln CA
652 63 F 210 Kat Powell 12:11:48 San Jose CA
653 55 F 211 Becky Matsuoka 12:11:57 Newcastle CA
654 40 M 443 Hector Lopez 12:12:07 San Jose CA
655 39 F 212 Tanja Froehlingsdorf 12:12:08 San Jose CA
656 25 M 444 Shayne Morgan 12:12:48 Auburn CA
657 65 F 213 Janet Pucci 12:13:38 Newcastle CA
658 28 F 214 Jordan Costello 12:14:18 Windsor CA
659 48 F 215 Joan Green 12:14:47 Sacramento CA
660 40 F 216 Ellisa Capraro 12:14:47 Sacramento CA
661 52 M 445 Ian Stuart 12:14:55 San Diego CA
662 52 M 446 Franz Mairhofer 12:16:20 San Jose CA
663 34 M 447 Jerry Hughes 12:16:27 Visalia CA
664 58 M 448 Andrew Kallet 12:17:04 Corte Madera CA
665 56 M 449 Chuck Busse 12:17:49 Ontario CA
666 44 F 217 Pahla Bowers 12:17:58 Elk Grove CA
667 69 M 450 Tan Le 12:18:02 San Jose CA
668 40 F 218 Candie Malone 12:18:37 Carmichael CA
669 33 F 219 Elisa Park 12:20:54 San Francisco CA
670 42 F 220 Huy Le 12:20:57 Redlands CA
671 59 M 451 Stu Drake 12:20:58 Yucaipa CA
672 53 F 221 Maria Aoyama 12:21:49 Sacramento CA
673 36 F 222 Heather Prettyman 12:22:38 Roseville CA
674 50 M 452 Christopher Miller 12:23:55 Pinole CA
675 57 M 453 Larry Snyder 12:23:58 Lodi CA
676 46 M 454 Brian Mansur 12:24:14 Valencia CA
677 43 M 455 Chris Larson 12:24:38 Chino Hills CA
678 53 M 456 David Lateano 12:25:16 Roseville CA
679 55 M 457 Richard Henry 12:25:17 Elverta CA
680 48 M 458 Jerry Lane 12:25:18 Rescue CA
681 62 M 459 Robert Cervero 12:26:18 Lafayette CA
682 56 M 460 Neil Silvers 12:26:43 Arroyo Grande CA
683 63 M 461 Joseph Scherger 12:27:47 San Diego CA
684 38 F 223 Kristen Klink 12:28:01
685 65 M 462 Larry Morrison 12:29:18 Roseville CA
686 37 F 224 Monica Saley 12:30:03 Santa Ana CA
687 23 F 225 Courtney Chinn 12:30:19 Sacramento CA
688 23 F 226 Lauren Marks 12:30:20 Sacramento CA
689 51 F 227 Leti Morales 12:30:21 Lincoln CA
690 56 F 228 Diana Daves 12:30:30 Bakersfield CA
691 23 F 229 Chelsie Tate 12:30:36 Placerville CA
692 44 F 230 Tammy Prince 12:30:36 Orangevale CA
693 52 F 231 Patti Kozlovsky 12:30:41 Sonoma CA
694 43 F 232 Crista Rosten 12:31:36 Upland CA
695 39 M 463 Kirk Torres 12:31:54 San Clemente CA
696 41 M 464 Wayne Eric Burk 12:32:59 San Jose CA
697 67 M 465 Richard Roehrkasse 12:33:13 Grass Valley CA
698 33 M 466 William Trang 12:33:32 San Jose CA
699 36 F 233 Alina Thaxton 12:35:02 San Francisco CA
700 51 F 234 Claudia Foley 12:35:41 El Dorado Hills CA
701 35 F 235 Alexis Martin 12:35:50 El Dorado Hills CA
702 27 M 467 Allan Goddard 12:36:12 Manteca CA
703 25 F 236 Jerline Hsin 12:37:21 Torrance CA
704 45 F 237 Lara Urtuzuastegui 12:38:08 Alpharetta GA
705 65 M 468 Chuck Wilson 12:38:39 Palo Alto CA
706 41 M 469 Darryl Wong 12:38:44 Alameda CA
707 57 F 238 Jennifer Nelson 12:39:47 Folsom CA
708 49 F 239 Sherri Twedt 12:40:19 Verdi NV
709 60 M 470 Gary Davis 12:40:21 Merced CA
710 61 F 240 Helga Backhaus 12:41:42 Gifhorn DEU
711 50 M 471 Gary Niebergall 12:42:09 Ventura CA
712 42 F 241 Imogen Scott 12:42:44 Sunnyvale CA
713 34 F 242 Ana Fuentes 12:43:36 Modesto CA
714 61 M 472 William Dumonthier 12:44:39 Santa Clara CA
715 30 F 243 Mary Henderson 12:44:59 Oakland CA
716 37 F 244 Kathleen West 12:45:00 Roseville CA
717 52 F 245 Angela Narvasa 12:46:44 Point Richmond CA
718 33 F 246 Jessica Rios 12:46:57 Folsom CA
719 33 M 473 Jonathan Strack 12:47:19 Elk Grove CA
720 33 F 247 Jessica Strack 12:47:20 Elk Grove CA
721 38 F 248 Katherine Decarlo 12:47:24 San Ramon CA
722 57 M 474 Doug Haas 12:47:28 Lodi CA
723 43 M 475 Luis Islas 12:48:07 San Jose CA
724 58 F 249 Sharleen Wenning 12:48:43 Folsom CA
725 66 F 250 Bonnelle Murphy 12:48:46 Solvang CA
726 30 M 476 Matt Moore 12:48:49 San Jose CA
727 29 F 251 Xuan-Mai Nguyen 12:49:19 Fountain Valley CA
728 39 M 477 Christian Black 12:49:30 Sunnyvale CA
729 32 F 252 Lindsay De Borba 12:49:43 Sunnyvale CA
730 56 M 478 Daniel Ruxin 12:51:55 Concord CA
731 40 M 479 Jeffrey Rowe 12:52:27 Modesto CA
732 34 F 253 Carlene Olsen 12:52:28 Modesto CA
733 30 M 480 Aaron Spinogatti 12:55:07 Corona CA
734 65 F 254 Mari Bashor 12:56:21 Sacramento CA
735 55 F 255 Mylinh Nguyen 12:56:58 Milpitas CA
736 52 M 481 George Clarke 12:58:36 Santa Clara CA
737 43 F 256 Darlene Shimamoto 12:58:38 San Jose CA
738 45 F 257 Linda Somera-Moore 12:58:59 Elk Grove CA
739 38 M 482 Celso Espinoza 12:59:44 La Jolla CA
740 60 M 483 Chau Pham 13:00:16 Milpitas CA
741 31 M 484 Todd Shipman 13:02:15 Martinez CA
742 56 M 485 Joe Martins 13:02:29 Stockton CA
743 38 F 258 Kate Panepinto 13:03:42 Richmond CA
744 56 M 486 Jim Buckley 13:04:23 Los Gatos CA
745 63 M 487 Masataka Negishi 13:05:27 San Francisco CA
746 53 F 259 Karen Mohr 13:05:57 Hermosa Beach CA
747 34 M 488 Brett Adney 13:06:22 Fresno CA
748 53 F 260 Donna Louie 13:06:30 Fremont CA
749 24 M 489 Justin Busse 13:06:40 Ontario CA
750 39 F 261 Sarah Yost 13:06:46 Fresno CA
751 51 F 262 Elizabeth Bachmann 13:07:52 Murrieta CA
752 43 M 490 Douglas Wright 13:09:05 El Macero CA
753 60 M 491 Milo Lewis 13:09:09 Los Banos CA
754 30 F 263 Eileen Jaculina 13:09:30 Sacramento CA
755 41 M 492 Adam Setser 13:10:25 Bakersfield CA
756 56 F 264 Laurel Posey 13:10:44 Grover Beach CA
757 61 M 493 Ralph Wright 13:10:45 Grover Beach CA
758 36 M 494 Charles Lim 13:11:36 San Francisco CA
759 53 M 495 Richard Cronin 13:11:50 Rocklin CA
760 35 M 496 Rodino Tucay 13:12:38 Milpitas CA
761 58 M 497 Stephen Colin 13:13:50 Auburn CA
762 62 F 265 Katherine Nestor 13:14:01 Arroyo Grande CA
763 44 F 266 Samantha Pruitt 13:14:01 Avila Beach CA
764 61 M 498 Gary Brickley 13:14:17 San Francisco CA
765 58 M 499 Bob Dickinson 13:14:25 Auburn CA
766 55 M 500 Joel Humburg 13:15:00 Sacramento CA
767 43 M 501 Scott Saunders 13:15:25 Rancho Cordova CA
768 51 M 502 Michael Reyes 13:15:39 Arroyo Grande CA
769 58 F 267 Patricia Koren 13:16:34 Cupertino CA
770 55 F 268 Janice Lisle 13:17:18 Martinez CA
771 29 M 503 Lucas Smith 13:17:43 Antioch CA
772 41 F 269 Melissa Caufield 13:17:54 Livermore CA
773 53 M 504 Koji Kiyohara 13:17:57 Los Angeles CA
774 33 M 505 Brian Seaman 13:19:23 San Francisco CA
775 28 M 506 Scott Seaman 13:19:25 New York NY
776 41 F 270 Vanessa Stacholy 13:20:56 Sacramento CA
777 44 F 271 Grace Lindo 13:20:56 Sacramento CA
778 43 F 272 Tawnya Dozier 13:20:57 San Jose CA
779 50 M 507 Dennis Ladnier 13:21:30 Hermosa Beach CA
780 37 F 273 Julie Walker 13:21:41 El Dorado Hills CA
781 51 M 508 Daniel Folk 13:22:04 Folsom CA
782 49 M 509 Sofronio Basical 13:22:28 Loma Linda CA
783 49 F 274 Teresa Downer 13:22:36 Acampo CA
784 51 M 510 Michael Caldwell 13:23:42 Clovis CA
785 51 M 511 Kirk McMorris 13:25:08 Sacramento CA
786 28 F 275 Sarah Barnes 13:26:39 Davis CA
787 62 M 512 Thomas Dovi 13:28:19 Sacramento CA
788 56 M 513 Burt Peterson 13:28:30 Gold River CA
789 59 F 276 Janine Jacinto 13:29:12 Lodi CA
790 53 F 277 Nancy Reich 13:29:13 Woodbridge CA
791 29 M 514 Daniel Dermody 13:29:30 Oakland CA
792 33 F 278 Heather Pedersen 13:29:48 Sacramento CA
793 51 F 279 Dyan Bender 13:31:23 Lafayette CA
794 56 M 515 George Manning 13:31:29 Alameda CA
795 54 M 516 Carl Kinnoin 13:31:31 Glendora CA
796 39 M 517 Shane Nelson 13:32:03 San Ramon CA
797 53 F 280 Jill Trent 13:32:13 Reno NV
798 49 F 281 Kathie Duart 13:32:13 Reno NV
799 58 M 518 Ken Crouse 13:32:23 Folsom CA
800 42 F 282 Angela Abbey 13:33:12 Crockett CA
801 57 F 283 Li-Chym Wu 13:33:24 La Crescenta CA
802 40 F 284 Amy Delaney 13:35:19 Wheatland CA
803 26 M 519 Matthew Hartsfield 13:35:32 Modesto CA
804 54 F 285 Wendy McTavish 13:36:00 Roseville CA
805 51 F 286 Elizabeth Adams 13:36:38 Marysville CA
806 51 M 520 Sal Gallardo 13:37:25 Los Gatos CA
807 52 M 521 Jeffrey Benner 13:37:35 Rancho Cordova CA
808 71 M 522 Jimmy Kreofsky 13:37:36 Cool CA
809 39 F 287 Julie Brockman 13:39:35 Auburn CA
810 38 F 288 Heather Hunter 13:39:36 Cool CA
811 38 F 289 Shrina Zaldivar 13:40:03 Vallejo CA
812 55 M 523 Peter Michalek 13:40:11 Cupertino CA
813 61 F 290 Joan Hennes 13:40:53 Fresno CA
814 27 F 291 Karalyn Clark 13:41:28 Los Angeles CA
815 51 M 524 Danny Chavez 13:46:03 Long Beach CA
816 64 F 292 Linda Robinson 13:47:55 Danville CA
817 49 M 525 Bruce Seigel 13:49:00 Roseville CA
818 45 F 293 Alicia Taylor 13:49:15 Sacramento CA
819 33 F 294 Allison Hernandez 13:53:57 Roseville CA
820 58 M 526 David Bry 13:54:01 Sacramento CA
821 30 F 295 Alyssa Perry 13:54:27 San Jose CA
822 59 F 296 Ofie Cruz 14:02:25 Merced CA
823 33 M 527 Jhakarin Leelhasuwan 14:04:32 Highland CA
824 46 F 297 Jennifer Cline 14:07:28 Thornton CO
825 33 M 528 Ryan Kerr 14:12:42 Corona CA
826 37 F 298 Jennifer Dicus 14:18:57 Sparks NV


Race results are obtained from numerous sources, and should be accurate and complete, but inevitably there may be errors. In such cases please let us know. We obtained results from our archive of old ultrarunning magazines dating back to 1981, as well as too-many-to-name Race Directors. We also obtained results from race websites and other on-line sources, such as Real Endurance.com, Active.com, onlineraceresults.com, International Trail Running Association (ITRA) and UltraSignup.com. We are grateful to the running community for providing the results that populate the database, and we hope you find it useful, informative and joyful.